Location: Buch
(49.7331°N, 12.1098°E)
Time: 00:46:49
(UTC+00:00)

Cosmos 1605 Rocket - Pass Details

Date: 12 May 2021
Orbit: 946 x 1004 km, 82.9° (Epoch: 23 June)

Event Time Altitude Azimuth Distance (km) Brightness Sun altitude
Rises 23:16:06 0° 352° (N) 3,670 8.5 -21.9°
Reaches altitude 10° 23:18:39 10° 356° (N) 2,728 7.5 -21.8°
Maximum altitude 23:24:50 61° 77° (ENE) 1,109 4.3 -21.8°
Enters shadow 23:27:47 32° 145° (SE) 1,630 4.8 -21.7°
